"Pseudo-MPEC" for P12oDgI

Created 2026 Jul 26 18:35:09 UT using Find_Orb

Click here for an explanation of pseudo-MPECs

 
 Astrometry: 
     P12oDgI*0C2026 07 24.58498423 16 56.022+00 59 17.66   ~7OHZ 21.96wXNEOCPF51
     P12oDgI 0C2026 07 24.59704523 16 55.839+00 59 24.80   ~7OHZ 21.84wXNEOCPF51
     P12oDgI 0C2026 07 24.60870823 16 55.662+00 59 31.55   ~7OHZ 21.60wXNEOCPF51
     P12oDgI 0C2026 07 26.49402323 16 27.189+01 17 50.86   ~7QHZ 22.12wXNEOCPF52
     P12oDgI 0C2026 07 26.50349123 16 27.006+01 17 56.37   ~7QHZ 22.00wXNEOCPF52
     P12oDgI 0C2026 07 26.52283323 16 26.637+01 18 07.08   ~7QHZ 21.74wXNEOCPF52

Station data:
(F51) Pan-STARRS 1, Haleakala  (N20.707234 W156.255910)  US/Hawaii.
   Observers J. Herman, T. Lowe, P. Minguez, A. Schultz, I. Smith. Measurers
   K. Chambers, T. de Boer, J. Fairlamb, H. Gao, M. Huber, C.-C. Lin, E.
   Magnier, Y. Ramanjooloo, R. Wainscoat, R. Weryk. 1.8-m Ritchey-Chrétien +
   CCD.
(F52) Pan-STARRS 2, Haleakala  (N20.707382 W156.255910)  US/Hawaii.
   Observers J. Herman, T. Lowe, P. Minguez, A. Schultz, I. Smith. Measurers
   K. Chambers, T. de Boer, J. Fairlamb, H. Gao, M. Huber, C.-C. Lin, E.
   Magnier, Y. Ramanjooloo, R. Wainscoat, R. Weryk. 1.8-m Ritchey-Chrétien +
   CCD.

Orbital elements:  P12oDgI
   Perihelion 2026 Apr 18.182714 +/- 134 TT =  4:23:06.5 (JD 2461148.682714)
Epoch 2026 Jul 26.0 TT = JDT 2461247.5   Ju: 0.8910   Sa: 0.1611
M   6.460454555 +/- 37              (J2000 ecliptic)             AutoNEOCP
n   0.065377777 +/- 0.0841          Peri.  333.891545 +/- 60
a   6.102614621 +/- 5.23            Node   319.516187 +/- 5.6
e   0.65466169 +/- 0.171            Incl.   16.614674 +/- 5.0
P  15.07558                H 18.08  G  0.15   U 11.1  SR
q 2.107466616 +/- 0.484    Q 10.09776262 +/- 3.5
From 6 observations 2026 July 24-26 (46.5 hr); mean residual 0".11
Residuals in arcseconds: 
260724 F51  .13-  .04+    260724 F51  .12+  .10-    260726 F52  .01-  .16+    
260724 F51  .00   .05+    260726 F52  .04+  .09+    260726 F52  .03-  .24-    

Ephemerides (geocentric):
Date (UTC) HH   RA             Dec           delta  r     elong  mag " sig PA
---- --------  ------------   ------------  ------ ------ -----  --- --------
2026 07 26 19  23 16 21.966   +01 20 43.27  1.4963 2.3089 132.7 21.7 2.29  92
2026 07 26 20  23 16 21.244   +01 21 07.08  1.4961 2.3091 132.7 21.7 2.59  95
2026 07 26 21  23 16 20.519   +01 21 30.87  1.4960 2.3092 132.8 21.7 2.91  97
2026 07 26 22  23 16 19.791   +01 21 54.65  1.4958 2.3094 132.8 21.7 3.24  99
2026 07 26 23  23 16 19.061   +01 22 18.42  1.4956 2.3095 132.8 21.7 3.58 100
2026 07 27 00  23 16 18.328   +01 22 42.16  1.4954 2.3097 132.9 21.7 3.93 101
2026 07 27 01  23 16 17.591   +01 23 05.89  1.4953 2.3098 132.9 21.7 4.29 103
2026 07 27 02  23 16 16.852   +01 23 29.61  1.4951 2.3100 133.0 21.7 4.67 104
2026 07 27 03  23 16 16.110   +01 23 53.31  1.4949 2.3102 133.0 21.7 5.05 104
2026 07 27 04  23 16 15.365   +01 24 16.99  1.4947 2.3103 133.0 21.7 5.45 105
2026 07 27 05  23 16 14.618   +01 24 40.65  1.4946 2.3105 133.1 21.7 5.85 106
2026 07 27 06  23 16 13.867   +01 25 04.30  1.4944 2.3106 133.1 21.7 6.27 107
2026 07 27 07  23 16 13.114   +01 25 27.94  1.4942 2.3108 133.2 21.7 6.69 107
2026 07 27 08  23 16 12.358   +01 25 51.55  1.4940 2.3110 133.2 21.7 7.13 108
2026 07 27 09  23 16 11.599   +01 26 15.16  1.4939 2.3111 133.2 21.7 7.58 108
2026 07 27 10  23 16 10.837   +01 26 38.74  1.4937 2.3113 133.3 21.7 8.04 109
2026 07 27 11  23 16 10.072   +01 27 02.31  1.4935 2.3114 133.3 21.7 8.51 109
2026 07 27 12  23 16 09.304   +01 27 25.86  1.4933 2.3116 133.4 21.7 8.99 109
2026 07 27 13  23 16 08.534   +01 27 49.40  1.4932 2.3117 133.4 21.7 9.47 110
2026 07 27 14  23 16 07.760   +01 28 12.92  1.4930 2.3119 133.4 21.7 9.97 110
2026 07 27 15  23 16 06.984   +01 28 36.42  1.4928 2.3121 133.5 21.7 10.5 110
2026 07 27 16  23 16 06.205   +01 28 59.91  1.4927 2.3122 133.5 21.7 11.0 110
2026 07 27 17  23 16 05.423   +01 29 23.38  1.4925 2.3124 133.6 21.7 11.5 111
2026 07 27 18  23 16 04.639   +01 29 46.84  1.4923 2.3125 133.6 21.7 12.1 111
2026 07 27 19  23 16 03.851   +01 30 10.28  1.4921 2.3127 133.6 21.7 12.6 111
2026 07 27 20  23 16 03.061   +01 30 33.70  1.4920 2.3129 133.7 21.7 13.2 111
2026 07 27 21  23 16 02.268   +01 30 57.10  1.4918 2.3130 133.7 21.7 13.8 112
2026 07 27 22  23 16 01.472   +01 31 20.49  1.4916 2.3132 133.7 21.7 14.3 112
2026 07 27 23  23 16 00.673   +01 31 43.87  1.4915 2.3133 133.8 21.7 14.9 112
2026 07 28 00  23 15 59.871   +01 32 07.22  1.4913 2.3135 133.8 21.7 15.5 112
2026 07 28 01  23 15 59.067   +01 32 30.56  1.4911 2.3136 133.9 21.7 16.1 112
2026 07 28 02  23 15 58.259   +01 32 53.89  1.4910 2.3138 133.9 21.7 16.8 112
2026 07 28 03  23 15 57.449   +01 33 17.20  1.4908 2.3140 133.9 21.7 17.4 112
2026 07 28 04  23 15 56.636   +01 33 40.49  1.4906 2.3141 134.0 21.7 18.0 113
2026 07 28 05  23 15 55.820   +01 34 03.76  1.4905 2.3143 134.0 21.7 18.7 113
2026 07 28 06  23 15 55.001   +01 34 27.02  1.4903 2.3144 134.1 21.7 19.4 113
2026 07 28 07  23 15 54.180   +01 34 50.26  1.4901 2.3146 134.1 21.7 20.0 113
2026 07 28 08  23 15 53.356   +01 35 13.49  1.4900 2.3148 134.1 21.7 20.7 113
2026 07 28 09  23 15 52.528   +01 35 36.70  1.4898 2.3149 134.2 21.7 21.4 113
2026 07 28 10  23 15 51.698   +01 35 59.89  1.4896 2.3151 134.2 21.7 22.1 113
2026 07 28 11  23 15 50.866   +01 36 23.06  1.4895 2.3152 134.3 21.7 22.8 113
2026 07 28 12  23 15 50.030   +01 36 46.22  1.4893 2.3154 134.3 21.7 23.5 113
2026 07 28 13  23 15 49.192   +01 37 09.37  1.4891 2.3156 134.3 21.7 24.3 113
2026 07 28 14  23 15 48.350   +01 37 32.49  1.4890 2.3157 134.4 21.7 25.0 113
2026 07 28 15  23 15 47.506   +01 37 55.60  1.4888 2.3159 134.4 21.7 25.8 113
2026 07 28 16  23 15 46.660   +01 38 18.70  1.4886 2.3160 134.5 21.7 26.5 114
2026 07 28 17  23 15 45.810   +01 38 41.77  1.4885 2.3162 134.5 21.7 27.3 114
2026 07 28 18  23 15 44.957   +01 39 04.83  1.4883 2.3164 134.5 21.7 28.1 114